{"data":{"norad_id":89349,"intl_designator":"","name":"UNKNOWN","alt_names":[],"object_type":"UNKNOWN","status":"UNKNOWN","operator":null,"country":null,"launch_date":null,"launch_site_code":null,"launch_vehicle":null,"mission":null,"orbit_class":"UNKNOWN","rcs_meters":null,"size_class":null,"mass_kg":null,"dimensions":null,"purposes":[],"wikipedia_slug":null,"has_3d_model":false,"image_url":null,"decayed_at":null,"tle_current":{"epoch":"2026-07-09T11:23:25.685376Z","epoch_age_seconds":6323809,"freshness":"OLD","line1":"1 89349U          26190.47460284  .00000121  00000+0  39594-3 0  9992","line2":"2 89349  90.2475  12.0818 0031969  78.6287 281.8422 12.96333254505799","mean_motion":12.96333254,"eccentricity":0.0031969,"inclination_deg":90.2475,"raan_deg":12.0818,"arg_perigee_deg":78.6287,"mean_anomaly_deg":281.8422,"bstar":0.00039594,"rev_number":50579,"period_min":111.0825472969,"perigee_km":1252.0195169684,"apogee_km":1300.9616748913,"semimajor_km":7654.6275959298,"source":"CELESTRAK","updated_at":"2026-08-08T09:00:39.165332Z"}}}